Grapevine, CA Past Weather

Last 30 Days

 
High: 74ºf @10:13 AM    Low: 59ºf @4:13 AM     Approx. Precipitation / Rain Total: in.
Time (PDT)Temp. (ºf)Humidity (%)Dew Point (ºf)Barometer (inHG)Wind Speed (mph)Wind DirectionWind Gust (mph)1hr. Precip / Rain Total (in.)Snow Depth
10:13 AM742636.93-5.21ssw9.56--
9:13 AM722736.18-5.21ssw8.69--
8:13 AM693540.2-4.34ssw6.95--
4:13 AM594839.34-2.61s6.08--
3:13 AM614539.5-5.21ssw7.82--
2:13 AM624540.41-3.48s7.82--
1:13 AM624540.41-6.08ssw7.82--
12:13 AM653838.77-5.21ssw6.95--
High: 78ºf @11:13 AM    Low: 60ºf @6:13 AM     Approx. Precipitation / Rain Total: in.
Time (PDT)Temp. (ºf)Humidity (%)Dew Point (ºf)Barometer (inHG)Wind Speed (mph)Wind DirectionWind Gust (mph)1hr. Precip / Rain Total (in.)Snow Depth
11:13 PM654040.09-5.21ssw6.95--
9:13 PM664141.62-3.48ssw6.08--
8:13 PM674142.52-5.21ssw7.82--
7:13 PM713743.4-3.48s8.69--
6:13 PM733543.72-5.21ssw11.3--
5:13 PM743544.6-6.08ssw10.43--
4:13 PM743443.84-6.95ssw11.3--
3:13 PM753545.47-6.08sw10.43--
2:13 PM743242.26-6.08ssw11.3--
1:13 PM743242.26-6.95ssw10.43--
12:13 PM772740.44-6.08nnw9.56--
11:13 AM782539.31-4.34nne9.56--
10:13 AM752334.68-4.34nne6.95--
9:13 AM732333-3.48nne5.21--
8:13 AM712230.24-2.61w4.34--
7:13 AM662124.95-1.74wnw3.48--
6:13 AM601816.39-1.74nw3.48--
5:13 AM611715.89-2.61wsw5.21--
4:13 AM612019.65-2.61wsw6.08--
2:13 AM631717.51-5.21sw6.95--
High: 79ºf @2:13 PM    Low: 63ºf @9:13 PM     Approx. Precipitation / Rain Total: in.
Time (PDT)Temp. (ºf)Humidity (%)Dew Point (ºf)Barometer (inHG)Wind Speed (mph)Wind DirectionWind Gust (mph)1hr. Precip / Rain Total (in.)Snow Depth
11:13 PM641718.32-3.48ssw6.08--
10:13 PM643636.51-4.34sw6.08--
9:13 PM634038.3-0.87wsw6.95--
8:13 PM663537.56-5.21nnw11.3--
7:13 PM712836.25-6.08nne11.3--
6:13 PM762234.4-3.48nnw16.51--
5:13 PM761728.03-10.43nne18.25--
4:13 PM771525.81-12.17n21.72--
3:13 PM781628.17-13.9n22.59--
2:13 PM791425.73-12.17n22.59--
1:13 PM771931.57-13.9n20.86--
12:13 PM752334.68-14.77n19.99--
11:13 AM742939.71-11.3n16.51--
10:13 AM713138.83-10.43n13.03--
9:13 AM702734.48-6.08n8.69--
7:13 AM682025.43-2.61nnw4.34--
4:13 AM641718.32-2.61sw6.08--
3:13 AM641413.86-3.48w4.34--
2:13 AM652225.23-3.48wsw5.21--
1:13 AM652831.1-3.48wsw4.34--
12:13 AM653133.63-3.48sw4.34--
High: 81ºf @4:13 PM    Low: 62ºf @5:13 AM     Approx. Precipitation / Rain Total: in.
Time (PDT)Temp. (ºf)Humidity (%)Dew Point (ºf)Barometer (inHG)Wind Speed (mph)Wind DirectionWind Gust (mph)1hr. Precip / Rain Total (in.)Snow Depth
10:13 PM633434.19---4.34--
9:13 PM653335.19-3.48wsw5.21--
8:13 PM673437.7-3.48sse7.82--
6:13 PM763546.35-3.48ene11.3--
5:13 PM783447.34-5.21ne10.43--
4:13 PM812945.72-3.48nne12.17--
3:13 PM802439.95-4.34ssw12.17--
1:13 PM762941.43-6.95ssw13.03--
11:13 AM752839.67-6.08wsw9.56--
10:13 AM752738.74-5.21sw8.69--
9:13 AM752839.67-3.48sw6.08--
8:13 AM713441.21-3.48s5.21--
7:13 AM673840.55-1.74s3.48--
6:13 AM634038.3-2.61ssw3.48--
5:13 AM623936.76-2.61ssw4.34--
4:13 AM624037.4-3.48ssw4.34--
3:13 AM623936.76-3.48ssw6.08--
2:13 AM633736.32-4.34ssw6.08--
1:13 AM643535.8-3.48sse6.08--
High: 72ºf @4:13 PM    Low: 53ºf @4:13 AM     Approx. Precipitation / Rain Total: in.
Time (PDT)Temp. (ºf)Humidity (%)Dew Point (ºf)Barometer (inHG)Wind Speed (mph)Wind DirectionWind Gust (mph)1hr. Precip / Rain Total (in.)Snow Depth
11:13 PM642931.11-3.48sse6.95--
10:13 PM643233.55-3.48se6.95--
8:13 PM654040.09-3.48ssw7.82--
7:13 PM693741.63-4.34ssw7.82--
6:13 PM713642.69-4.34s13.03--
5:13 PM723442.08-5.21ssw13.03--
4:13 PM723542.84-6.08s11.3--
3:13 PM723542.84-6.08s11.3--
2:13 PM723542.84-6.95ssw11.3--
1:13 PM713743.4-6.08ssw13.9--
12:13 PM703742.52-6.95ssw10.43--
11:13 AM683841.44-6.08ssw9.56--
10:13 AM674343.76-4.34wsw9.56--
8:13 AM624339.25-3.48sse6.08--
4:13 AM535939.06-4.34ssw6.95--
3:13 AM546341.69-4.34ssw6.08--
2:13 AM545538.2-4.34ssw7.82--
1:13 AM565339.11-1.74s6.95--
High: 67ºf @4:13 PM    Low: 45ºf @5:13 AM     Approx. Precipitation / Rain Total: in.
Time (PDT)Temp. (ºf)Humidity (%)Dew Point (ºf)Barometer (inHG)Wind Speed (mph)Wind DirectionWind Gust (mph)1hr. Precip / Rain Total (in.)Snow Depth
11:13 PM565037.63-5.21ssw10.43--
9:13 PM574938.03-6.95ssw9.56--
8:13 PM575038.55-6.08ssw10.43--
5:13 PM654241.34-6.95ssw17.38--
4:13 PM673437.7-7.82ssw15.64--
3:13 PM673336.94-6.95s13.03--
2:13 PM663638.28-6.08ssw13.03--
1:13 PM654140.72-6.95s13.03--
12:13 PM633937.65-6.95ssw13.9--
11:13 AM633232.68-5.21s12.17--
10:13 AM604035.61-5.21ssw8.69--
9:13 AM603330.82-4.34s7.82--
7:13 AM506739.48-3.48nne10.43--
6:13 AM459744.2-6.08n7.82--
5:13 AM457336.87-2.61wsw6.08--
4:13 AM468341.13-2.61n6.08--
2:13 AM496638.14-2.61s7.82--
1:13 AM503624.11-3.48s12.17--
12:13 AM523525.21-8.69ssw13.03--
High: 76ºf @3:13 PM    Low: 60ºf @10:13 PM     Approx. Precipitation / Rain Total: in.
Time (PDT)Temp. (ºf)Humidity (%)Dew Point (ºf)Barometer (inHG)Wind Speed (mph)Wind DirectionWind Gust (mph)1hr. Precip / Rain Total (in.)Snow Depth
10:13 PM60127.27-8.69ssw12.17--
8:13 PM632021.31-8.69ssw14.77--
7:13 PM681213.51-9.56ssw13.03--
6:13 PM721012.47-6.95s19.12--
5:13 PM752334.68-6.95s18.25--
4:13 PM742636.93-9.56ssw17.38--
3:13 PM762335.51-8.69ssw21.72--
2:13 PM762739.59-7.82ssw17.38--
1:13 PM742838.81-8.69ssw14.77--
12:13 PM723542.84-7.82sw13.03--
8:13 AM693237.91-6.95se13.03--
7:13 AM684143.41-3.48s6.08--
5:13 AM624741.54-5.21ssw7.82--
4:13 AM634440.74-5.21ssw8.69--
2:13 AM683740.75-6.95ssw12.17--
12:13 AM733745.17-8.69ssw13.03--
High: 86ºf @4:13 PM    Low: 69ºf @4:13 AM     Approx. Precipitation / Rain Total: in.
Time (PDT)Temp. (ºf)Humidity (%)Dew Point (ºf)Barometer (inHG)Wind Speed (mph)Wind DirectionWind Gust (mph)1hr. Precip / Rain Total (in.)Snow Depth
11:13 PM743544.6-3.48n9.56--
10:13 PM753646.22-4.34n10.43--
9:13 PM764452.49-6.95ssw11.3--
8:13 PM774252.13-6.08ssw10.43--
7:13 PM813550.74-4.34ssw10.43--
6:13 PM843452.58-6.08ssw13.03--
4:13 PM863756.66-6.08ssw14.77--
3:13 PM853856.51-7.82ssw13.9--
1:13 PM853755.78-5.21ssw10.43--
10:13 AM833955.46-5.21ssw9.56--
9:13 AM813953.68-4.34ssw8.69--
8:13 AM774453.4-3.48s7.82--
6:13 AM695250.63-6.08ssw7.82--
5:13 AM695250.63-5.21ssw6.95--
4:13 AM695049.58-5.21ssw8.69--
3:13 AM704748.83-6.08ssw8.69--
2:13 AM714749.74-5.21ssw7.82--
1:13 AM724448.88-5.21ssw8.69--
12:13 AM744249.44-6.08ssw8.69--
High: 82ºf @3:13 PM    Low: 67ºf @6:13 AM     Approx. Precipitation / Rain Total: in.
Time (PDT)Temp. (ºf)Humidity (%)Dew Point (ºf)Barometer (inHG)Wind Speed (mph)Wind DirectionWind Gust (mph)1hr. Precip / Rain Total (in.)Snow Depth
11:13 PM743746.06-4.34ssw6.08--
10:13 PM743846.77-4.34ssw7.82--
9:13 PM744350.07-3.48ssw6.95--
8:13 PM744249.44-5.21ssw8.69--
7:13 PM783749.6-4.34ssw8.69--
6:13 PM803650.62-4.34ssw12.17--
5:13 PM823551.62-6.08s12.17--
4:13 PM813953.68-6.95ssw13.03--
3:13 PM823551.62-6.95ssw12.17--
2:13 PM823853.86-6.95ssw12.17--
1:13 PM813449.96-6.95ssw12.17--
11:13 AM793548.99-6.08sw9.56--
10:13 AM823450.83-3.48sw6.95--
9:13 AM784253.03-4.34se6.08--
6:13 AM674041.87-6.08ssw7.82--
5:13 AM673437.7-6.95ssw7.82--
4:13 AM693237.91-4.34sse6.08--
3:13 AM683136.23-3.48s8.69--
2:13 AM693036.27-4.34ssw6.95--
12:13 AM703339.56-4.34ssw7.82--
High: 84ºf @3:13 PM    Low: 67ºf @4:13 AM     Approx. Precipitation / Rain Total: in.
Time (PDT)Temp. (ºf)Humidity (%)Dew Point (ºf)Barometer (inHG)Wind Speed (mph)Wind DirectionWind Gust (mph)1hr. Precip / Rain Total (in.)Snow Depth
11:13 PM703742.52-5.21ssw8.69--
10:13 PM723643.57-6.08ssw9.56--
9:13 PM723844.99-4.34ssw9.56--
7:13 PM783850.31-4.34ssw9.56--
6:13 PM813449.96-4.34ssw9.56--
5:13 PM833149.22-5.21s10.43--
4:13 PM833149.22-6.95sw12.17--
3:13 PM843250.94-6.08s12.17--
1:13 PM823551.62-5.21ssw10.43--
12:13 PM813449.96-6.95sw10.43--
11:13 AM813147.49-5.21ssw7.82--
10:13 AM754350.97-6.08sw9.56--
8:13 AM774252.13-3.48ssw6.95--
6:13 AM695150.11-3.48ssw6.08--
5:13 AM685149.19-3.48s6.08--
4:13 AM675248.79-3.48s7.82--
3:13 AM685149.19-5.21ssw7.82--
2:13 AM695049.58-6.95ssw8.69--
1:13 AM704447.07-6.08ssw9.56--
12:13 AM724147-6.08ssw9.56--
High: 82ºf @11:13 AM    Low: 67ºf @6:13 AM     Approx. Precipitation / Rain Total: in.
Time (PDT)Temp. (ºf)Humidity (%)Dew Point (ºf)Barometer (inHG)Wind Speed (mph)Wind DirectionWind Gust (mph)1hr. Precip / Rain Total (in.)Snow Depth
10:13 PM734147.89-3.48s5.21--
7:13 PM783951.01-3.48s6.95--
5:13 PM783850.31-4.34ssw10.43--
4:13 PM813953.68-5.21ssw12.17--
3:13 PM813852.97-6.08ssw10.43--
2:13 PM814255.72-5.21ssw12.17--
1:13 PM814255.72-6.08ssw10.43--
12:13 PM804254.82-6.08ssw9.56--
11:13 AM824155.95-4.34sw7.82--
10:13 AM804154.16-3.48sw6.08--
9:13 AM794455.2-3.48s6.08--
7:13 AM715252.48-2.61s6.08--
6:13 AM675751.26-5.21ssw6.08--
5:13 AM675751.26-3.48s5.21--
4:13 AM675851.73-3.48s5.21--
3:13 AM685450.72-3.48s6.08--
1:13 AM695351.15-5.21ssw7.82--
High: 84ºf @11:13 AM    Low: 67ºf @2:13 AM     Approx. Precipitation / Rain Total: in.
Time (PDT)Temp. (ºf)Humidity (%)Dew Point (ºf)Barometer (inHG)Wind Speed (mph)Wind DirectionWind Gust (mph)1hr. Precip / Rain Total (in.)Snow Depth
11:13 PM734449.78-5.21ssw9.56--
6:13 PM794354.57-4.34ssw8.69--
5:13 PM813953.68-5.21sw8.69--
4:13 PM833955.46-5.21s10.43--
11:13 AM843553.37-5.21nw9.56--
10:13 AM793951.9-4.34sw7.82--
9:13 AM794052.59-2.61w5.21--
8:13 AM764452.49-3.48s6.08--
6:13 AM685350.22-3.48ssw4.34--
5:13 AM675047.74-3.48s5.21--
4:13 AM685048.66-3.48s5.21--
3:13 AM685350.22-3.48s5.21--
2:13 AM675349.3-4.34ssw7.82--
1:13 AM695049.58-6.95ssw8.69--
High: 81ºf @2:13 PM    Low: 62ºf @3:13 AM     Approx. Precipitation / Rain Total: in.
Time (PDT)Temp. (ºf)Humidity (%)Dew Point (ºf)Barometer (inHG)Wind Speed (mph)Wind DirectionWind Gust (mph)1hr. Precip / Rain Total (in.)Snow Depth
11:13 PM714850.31-3.48ssw6.95--
10:13 PM714548.58-4.34ssw6.08--
7:13 PM763949.24-4.34ssw7.82--
6:13 PM783850.31-4.34s9.56--
5:13 PM803549.86-5.21ssw9.56--
4:13 PM803549.86-6.08sw11.3--
3:13 PM813550.74-5.21sw12.17--
2:13 PM813651.5-6.08s11.3--
1:13 PM804053.48-6.08sw9.56--
12:13 PM784152.37-6.08sw9.56--
11:13 AM773547.23-6.08wsw8.69--
10:13 AM783044.03-4.34sw7.82--
9:13 AM763949.24-4.34sw7.82--
8:13 AM715151.95-5.21sw8.69--
7:13 AM676153.1-6.95sw8.69--
6:13 AM646351.15-6.08ssw6.95--
5:13 AM625947.5-3.48s6.08--
3:13 AM625143.66-5.21ssw8.69--
2:13 AM654040.09-6.95ssw12.17--
1:13 AM673336.94-6.95ssw10.43--
12:13 AM693137.1-6.08ssw9.56--
High: 78ºf @3:13 PM    Low: 62ºf @4:13 AM     Approx. Precipitation / Rain Total: in.
Time (PDT)Temp. (ºf)Humidity (%)Dew Point (ºf)Barometer (inHG)Wind Speed (mph)Wind DirectionWind Gust (mph)1hr. Precip / Rain Total (in.)Snow Depth
11:13 PM702734.48-6.08ssw8.69--
10:13 PM702229.4-5.21ssw8.69--
8:13 PM693943-5.21ssw8.69--
7:13 PM733342.18-4.34ssw9.56--
6:13 PM763143.16-5.21s11.3--
5:13 PM772942.29-6.08ssw13.9--
4:13 PM783144.89-6.08ssw12.17--
3:13 PM783245.73-6.95ssw13.03--
2:13 PM773043.17-6.08ssw13.03--
1:13 PM764049.92-6.95ssw13.03--
12:13 PM763949.24-6.95ssw11.3--
11:13 AM754049.02-6.95ssw9.56--
10:13 AM773144.03-4.34ssw6.95--
9:13 AM753444.71-4.34s7.82--
8:13 AM733342.18-4.34ssw6.95--
7:13 AM694043.66-3.48s5.21--
6:13 AM634843-3.48s6.08--
5:13 AM634843-4.34s6.95--
4:13 AM625344.67-6.08ssw7.82--
2:13 AM654241.34-6.08ssw9.56--
12:13 AM673840.55-6.95ssw11.3--
High: 80ºf @3:13 PM    Low: 62ºf @5:13 AM     Approx. Precipitation / Rain Total: in.
Time (PDT)Temp. (ºf)Humidity (%)Dew Point (ºf)Barometer (inHG)Wind Speed (mph)Wind DirectionWind Gust (mph)1hr. Precip / Rain Total (in.)Snow Depth
11:13 PM703137.97-6.95ssw10.43--
10:13 PM703037.13-3.48s6.95--
9:13 PM702936.27-5.21ssw7.82--
8:13 PM713138.83-5.21ssw8.69--
7:13 PM742838.81-5.21ssw10.43--
6:13 PM772437.43-5.21ssw10.43--
5:13 PM792439.11-6.08s11.3--
4:13 PM792540.15-6.08ssw13.03--
3:13 PM802742.99-5.21ssw11.3--
2:13 PM792843.09-6.08ssw11.3--
1:13 PM783044.03-5.21s10.43--
12:13 PM782943.15-5.21ssw10.43--
11:13 AM763042.31-6.08sw10.43--
10:13 AM763243.99-4.34sw8.69--
9:13 AM743242.26-4.34ssw7.82--
8:13 AM723341.31-5.21ssw6.95--
7:13 AM693842.33-2.61s6.08--
6:13 AM654040.09-2.61s5.21--
5:13 AM624339.25-3.48ssw7.82--
3:13 AM644039.19-5.21ssw7.82--
2:13 AM653536.68-5.21ssw8.69--
1:13 AM663638.28-5.21ssw8.69--
12:13 AM673336.94-5.21ssw9.56--
High: 78ºf @2:13 PM    Low: 61ºf @6:13 AM     Approx. Precipitation / Rain Total: in.
Time (PDT)Temp. (ºf)Humidity (%)Dew Point (ºf)Barometer (inHG)Wind Speed (mph)Wind DirectionWind Gust (mph)1hr. Precip / Rain Total (in.)Snow Depth
11:13 PM682934.55-5.21ssw7.82--
10:13 PM693237.91-2.61s5.21--
9:13 PM683539.32-3.48s5.21--
8:13 PM693237.91-3.48ssw7.82--
6:13 PM752839.67-6.95ssw9.56--
5:13 PM772740.44-4.34ssw10.43--
4:13 PM762840.53-6.08sw13.9--
3:13 PM773043.17-4.34s10.43--
2:13 PM782842.24-5.21ssw12.17--
1:13 PM763143.16-7.82sw11.3--
12:13 PM763143.16-6.08sw11.3--
11:13 AM742535.94-6.08sw9.56--
10:13 AM752839.67-4.34wsw7.82--
9:13 AM733342.18-3.48ssw7.82--
8:13 AM693640.93-5.21sw6.95--
7:13 AM664443.46-3.48ssw5.21--
6:13 AM614438.93-3.48s6.08--
4:13 AM624339.25-5.21ssw6.08--
3:13 AM624540.41-4.34ssw6.95--
2:13 AM624439.83-5.21ssw7.82--
12:13 AM634239.54-4.34ssw6.08--
High: 73ºf @4:13 PM    Low: 56ºf @3:13 AM     Approx. Precipitation / Rain Total: in.
Time (PDT)Temp. (ºf)Humidity (%)Dew Point (ºf)Barometer (inHG)Wind Speed (mph)Wind DirectionWind Gust (mph)1hr. Precip / Rain Total (in.)Snow Depth
11:13 PM643837.88-4.34ssw6.08--
10:13 PM644542.23-3.48s7.82--
9:13 PM654341.95-2.61s4.34--
7:13 PM693741.63-5.21ssw9.56--
6:13 PM713743.4-4.34s11.3--
5:13 PM713541.96-6.95ssw11.3--
4:13 PM733745.17-6.08ssw12.17--
2:13 PM733039.72-6.95sw12.17--
1:13 PM723139.7-6.95ssw11.3--
12:13 PM703238.78-6.08sw10.43--
11:13 AM703339.56-5.21sw9.56--
7:13 AM623735.43-4.34ssw6.08--
3:13 AM563931.4-4.34ssw6.95--
2:13 AM563730.1-4.34ssw7.82--
1:13 AM573630.31-4.34ssw9.56--
12:13 AM583429.79-6.08ssw9.56--
High: 67ºf @4:13 PM    Low: 46ºf @5:13 AM     Approx. Precipitation / Rain Total: in.
Time (PDT)Temp. (ºf)Humidity (%)Dew Point (ºf)Barometer (inHG)Wind Speed (mph)Wind DirectionWind Gust (mph)1hr. Precip / Rain Total (in.)Snow Depth
11:13 PM593531.39-6.08ssw8.69--
10:13 PM592926.79-4.34s7.82--
9:13 PM584235.04-3.48s6.08--
8:13 PM594537.69-4.34ssw8.69--
6:13 PM644240.44-6.08ssw13.03--
5:13 PM663839.66-6.08ssw12.17--
4:13 PM674041.87-6.08s12.17--
3:13 PM654140.72-7.82ssw13.03--
2:13 PM654442.55-6.95sw13.03--
1:13 PM654341.95-6.08ssw10.43--
12:13 PM624842.08-6.95ssw11.3--
11:13 AM604840.25-6.95sw9.56--
10:13 AM605141.82-5.21sw10.43--
9:13 AM575440.52-6.08sw9.56--
8:13 AM556141.8-5.21s8.69--
5:13 AM468240.82-6.95ssw13.9--
4:13 AM487038.69-7.82ssw12.17--
3:13 AM506438.31-6.95ssw10.43--
2:13 AM516740.43-6.08ssw12.17--
1:13 AM526841.77-6.95ssw12.17--
12:13 AM546241.28-6.95ssw13.03--
High: 66ºf @4:13 PM    Low: 51ºf @5:13 AM     Approx. Precipitation / Rain Total: in.
Time (PDT)Temp. (ºf)Humidity (%)Dew Point (ºf)Barometer (inHG)Wind Speed (mph)Wind DirectionWind Gust (mph)1hr. Precip / Rain Total (in.)Snow Depth
11:13 PM565540.06-7.82ssw12.17--
10:13 PM575139.05-5.21ssw12.17--
9:13 PM585139.97-6.95ssw11.3--
8:13 PM585039.47-6.08ssw9.56--
7:13 PM624439.83-6.08ssw13.03--
6:13 PM643938.54-6.95ssw12.17--
5:13 PM653637.39-7.82ssw14.77--
4:13 PM663537.56-6.08s12.17--
3:13 PM663738.98-6.08ssw14.77--
2:13 PM644139.82-7.82ssw13.9--
1:13 PM644240.44-8.69ssw13.9--
12:13 PM634138.93-7.82ssw13.03--
11:13 AM624037.4-6.95ssw12.17--
9:13 AM584436.21-5.21ssw11.3--
8:13 AM544633.69-5.21s11.3--
6:13 AM515334.48-6.08ssw9.56--
5:13 AM515334.48-5.21ssw8.69--
4:13 AM524732.4-4.34s10.43--
3:13 AM545839.56-6.95ssw12.17--
2:13 AM548549.59-7.82ssw12.17--
1:13 AM596948.84-6.95ssw12.17--
12:13 AM606146.51-6.08ssw9.56--
High: 72ºf @4:13 PM    Low: 52ºf @5:13 AM     Approx. Precipitation / Rain Total: in.
Time (PDT)Temp. (ºf)Humidity (%)Dew Point (ºf)Barometer (inHG)Wind Speed (mph)Wind DirectionWind Gust (mph)1hr. Precip / Rain Total (in.)Snow Depth
11:13 PM605945.63-4.34ssw9.56--
10:13 PM615745.65-6.08ssw9.56--
9:13 PM625244.17-6.08ssw9.56--
8:13 PM635044.06-4.34ssw10.43--
7:13 PM654341.95-6.08ssw10.43--
6:13 PM673739.86-6.08ssw11.3--
5:13 PM713642.69-6.08s13.03--
4:13 PM723844.99-6.95ssw14.77--
3:13 PM714246.74-6.95ssw12.17--
2:13 PM704648.26-6.95ssw13.03--
1:13 PM694949.03-6.08ssw13.9--
12:13 PM665850.79-7.82ssw13.9--
11:13 AM655246.94-6.08ssw11.3--
10:13 AM664745.18-5.21ssw12.17--
9:13 AM654945.37-4.34s7.82--
8:13 AM635546.57-4.34ssw7.82--
7:13 AM586144.63-4.34ssw6.95--
6:13 AM546743.29-4.34s6.95--
5:13 AM526942.15-5.21ssw7.82--
3:13 AM546040.43-5.21ssw8.69--
2:13 AM546040.43-5.21ssw8.69--
1:13 AM545839.56-6.95ssw9.56--
12:13 AM564635.51-6.95ssw9.56--
High: 64ºf @3:13 PM    Low: 44ºf @4:13 AM     Approx. Precipitation / Rain Total: in.
Time (PDT)Temp. (ºf)Humidity (%)Dew Point (ºf)Barometer (inHG)Wind Speed (mph)Wind DirectionWind Gust (mph)1hr. Precip / Rain Total (in.)Snow Depth
11:13 PM564836.59-5.21ssw7.82--
10:13 PM565339.11-5.21ssw8.69--
9:13 PM555840.5-3.48s9.56--
8:13 PM556041.37-6.08ssw8.69--
7:13 PM605342.82-5.21s10.43--
5:13 PM644743.36-6.08ssw13.03--
4:13 PM634641.89-7.82ssw11.3--
3:13 PM644843.91-6.08ssw14.77--
2:13 PM625143.66-6.08s13.03--
1:13 PM615142.74-6.95s12.17--
12:13 PM605141.82-6.95ssw10.43--
11:13 AM604136.23-6.08sw8.69--
10:13 AM565841.43-5.21sw9.56--
9:13 AM545538.2-5.21ssw9.56--
8:13 AM535939.06-5.21ssw8.69--
7:13 AM507140.97-3.48s6.95--
6:13 AM458340.15-5.21ssw9.56--
5:13 AM448238.86-6.08ssw10.43--
4:13 AM447737.26-6.08ssw9.56--
3:13 AM457537.56-6.08ssw9.56--
2:13 AM466735.67-5.21s13.9--
1:13 AM475833-8.69ssw13.9--
12:13 AM485532.61-6.95ssw13.03--
High: 58ºf @4:13 PM    Low: 42ºf @5:13 AM     Approx. Precipitation / Rain Total: in.
Time (PDT)Temp. (ºf)Humidity (%)Dew Point (ºf)Barometer (inHG)Wind Speed (mph)Wind DirectionWind Gust (mph)1hr. Precip / Rain Total (in.)Snow Depth
11:13 PM495031.18-7.82ssw13.03--
10:13 PM505434.02-6.95ssw12.17--
9:13 PM505434.02-6.08ssw12.17--
7:13 PM554634.6-6.08ssw13.03--
6:13 PM573730.99-6.95ssw13.9--
5:13 PM583832.54-6.95s14.77--
4:13 PM584033.82-6.95ssw16.51--
3:13 PM574636.43-8.69ssw14.77--
2:13 PM575540.99-7.82ssw15.64--
1:13 PM565941.88-7.82ssw14.77--
12:13 PM556643.85-6.08ssw13.03--
10:13 AM497842.44-6.08ssw12.17--
9:13 AM478542.73-6.08ssw11.3--
8:13 AM449442.39-7.82ssw11.3--
7:13 AM439240.84-5.21ssw8.69--
6:13 AM4210042-5.21ssw9.56--
5:13 AM4210042-5.21ssw9.56--
4:13 AM4310043-6.95ssw11.3--
3:13 AM449843.47-7.82ssw13.9--
2:13 AM458340.15-9.56ssw14.77--
1:13 AM487741.14-5.21ssw10.43--
12:13 AM497240.37-5.21ssw12.17--
High: 72ºf @3:13 PM    Low: 51ºf @11:13 PM     Approx. Precipitation / Rain Total: in.
Time (PDT)Temp. (ºf)Humidity (%)Dew Point (ºf)Barometer (inHG)Wind Speed (mph)Wind DirectionWind Gust (mph)1hr. Precip / Rain Total (in.)Snow Depth
11:13 PM516439.26-6.95ssw13.9--
10:13 PM536240.33-6.95ssw9.56--
9:13 PM536039.49-5.21ssw11.3--
8:13 PM545337.26-7.82ssw15.64--
7:13 PM604136.23-8.69s13.9--
6:13 PM673336.94-4.34sw13.03--
5:13 PM703641.81-6.08ssw11.3--
3:13 PM723341.31-5.21wsw12.17--
2:13 PM723744.29-5.21ssw11.3--
1:13 PM703541.08-6.08sw12.17--
12:13 PM713944.78-4.34s12.17--
11:13 AM673639.16-6.95ssw13.03--
9:13 AM681213.51-9.56n13.03--
7:13 AM632829.38-5.21nnw6.95--
High: 82ºf @4:13 PM    Low: 63ºf @4:13 AM     Approx. Precipitation / Rain Total: in.
Time (PDT)Temp. (ºf)Humidity (%)Dew Point (ºf)Barometer (inHG)Wind Speed (mph)Wind DirectionWind Gust (mph)1hr. Precip / Rain Total (in.)Snow Depth
10:13 PM701215.07-4.34n7.82--
9:13 PM681620.14-6.08n13.03--
7:13 PM741320.04-12.17n21.72--
6:13 PM781323.17-10.43n16.51--
4:13 PM822643.71-4.34wnw10.43--
3:13 PM812642.86-4.34ssw13.03--
2:13 PM803045.76-6.08ssw12.17--
1:13 PM783144.89-6.08ssw11.3--
12:13 PM763344.8-6.08sw10.43--
11:13 AM783144.89-5.21w10.43--
10:13 AM792944.01-5.21nnw13.03--
9:13 AM783245.73-1.74nw4.34--
8:13 AM723744.29-3.48wsw5.21--
7:13 AM684445.26-3.48sw5.21--
6:13 AM644542.23-4.34ssw5.21--
4:13 AM633736.32-2.61s4.34--
3:13 AM643737.2-2.61s4.34--
2:13 AM653637.39-3.48ssw6.08--
1:13 AM653435.94-4.34ssw6.08--
High: 78ºf @2:13 PM    Low: 58ºf @3:13 AM     Approx. Precipitation / Rain Total: in.
Time (PDT)Temp. (ºf)Humidity (%)Dew Point (ºf)Barometer (inHG)Wind Speed (mph)Wind DirectionWind Gust (mph)1hr. Precip / Rain Total (in.)Snow Depth
11:13 PM673135.36-3.48sse6.08--
10:13 PM673135.36-3.48s7.82--
9:13 PM673336.94-4.34s6.95--
8:13 PM683438.58-4.34ssw7.82--
7:13 PM713138.83-4.34ssw7.82--
6:13 PM742737.89-5.21ssw9.56--
4:13 PM762638.62-6.08ssw11.3--
3:13 PM772336.35-6.95ssw10.43--
2:13 PM781932.39-6.08sw10.43--
1:13 PM782236.06-6.08wsw9.56--
12:13 PM762739.59-4.34s10.43--
11:13 AM722837.1-5.21sw8.69--
10:13 AM712432.38-5.21wsw7.82--
8:13 AM692228.57-3.48sse5.21--
7:13 AM653133.63-2.61sw4.34--
5:13 AM603230.06-4.34ssw5.21--
4:13 AM593329.94-5.21ssw6.08--
3:13 AM583731.88-2.61s5.21--
2:13 AM603431.55-3.48ssw5.21--
1:13 AM593531.39-3.48s6.08--
12:13 AM603532.27-3.48ssw6.08--
High: 67ºf @7:13 PM    Low: 60ºf @10:13 PM     Approx. Precipitation / Rain Total: in.
Time (PDT)Temp. (ºf)Humidity (%)Dew Point (ºf)Barometer (inHG)Wind Speed (mph)Wind DirectionWind Gust (mph)1hr. Precip / Rain Total (in.)Snow Depth
11:13 PM603834.32-3.48ssw6.08--
10:13 PM603834.32-2.61s5.21--
9:13 PM613533.15-4.34ssw6.08--
8:13 PM623433.31-3.48s6.95--
7:13 PM673135.36-3.48s9.56--
Past Weather Disclaimer Note regarding "Approx. Precipitation / Rain Total"

Currently

Fair 76°F
30.21in
Barometer
25%
Humidity
Northwest 15.0mph
Wind
Fair

Past Weather Nearby

More Local Information

Bookmark and Share

Go Ad Free - Become a Member